Погода в Безансоне

Франция     47°14′16″N   6°01′55″E
темп.,
°C
ветер,
м/с
пор.,
м/с
влажн.,
%
обл.,
%
осадки,
мм/ч
давл.,
гПа
погр.,
м
21 апреля, ср
ср2123:00+6в11885 0.0 101511
02:00+4вюв219145 0.0 101512
05:00+4ю118937 0.0 101611
08:00+6ююв128791 0.0 101787
11:00+13з23635 0.0 1016820
14:00+15зсз225619 0.3 10151440
17:00+14з33718 1.6 1015990
20:00+10юз238854 3.1 101642
22 апреля, чт
чт2223:00+7ю119326 0.0 101811
02:00+6юв11945 0.0 101910
05:00+5вюв119411 0.0 101910
08:00+7в11935 0.0 102052
11:00+13ссв33702 0.0 1020721
14:00+16св55535 0.1 10201527
17:00+16ссв565512 0.1 10191482
20:00+11всв49672 0.2 1021391
23 апреля, пт
пт2323:00+7всв413621 0.0 1023366
02:00+5всв311635 0.0 1024291
05:00+3всв310795 0.0 1024207
08:00+5всв412670 0.0 1025381
11:00+12св69420 0.0 1024876
14:00+15св68380 0.0 10231178
17:00+16св68435 0.0 10221186
20:00+12всв511593 0.0 1023423
24 апреля, сб
сб2423:00+8всв412610 0.0 1024322
02:00+4всв36800 0.0 102497
05:00+3в23830 0.0 102454
08:00+6в23720 0.0 102486
11:00+14ссв22475 0.0 1022640
14:00+18ссв33385 0.0 10211235
17:00+18св55445 0.0 1020923
20:00+13св39675 0.0 1020262
25 апреля, вс
вс2523:00+9в4107343 0.0 1021223
02:00+6в347963 0.0 102160
05:00+6в2280100 0.0 102027
08:00+8всв227289 0.0 102082
11:00+16св234824 0.0 1018561
14:00+20с324227 0.0 10171237
17:00+20св3345100 0.0 10161026
20:00+14всв3769100 0.0 1015144